This is the latest recevied weather packets stored in our database for station/object W3BRL. If no packets are shown the sender has not sent any weather packets the latest 10 day(s).
| Time | Temp. | Humidity | Pressure | Rain* | Wind** | Luminosity | Snow |
|---|---|---|---|---|---|---|---|
| 1777936117 | 21.11° C | 48% | 1005.4 hPa | 0 mm | - | 217 W/m² | - |
| 1777935815 | 21.11° C | 44% | 1005.3 hPa | 0 mm | - | 89 W/m² | - |
| 1777935513 | 21.11° C | 44% | 1005.3 hPa | 0 mm | - | 23 W/m² | - |
| 1777935209 | 21.11° C | 44% | 1005.3 hPa | 0 mm | - | 44 W/m² | - |
| 1777934907 | 21.67° C | 44% | 1005.3 hPa | 0 mm | - | 83 W/m² | - |
| 1777934604 | 21.67° C | 43% | 1005.1 hPa | 0 mm | - | 66 W/m² | - |
| 1777934300 | 21.67° C | 43% | 1005.2 hPa | 0 mm | - | 132 W/m² | - |
| 1777933996 | 21.11° C | 43% | 1005.2 hPa | 0 mm | - | 67 W/m² | - |
| 1777933692 | 21.67° C | 43% | 1005.3 hPa | 0 mm | - | 110 W/m² | - |
| 1777933389 | 21.67° C | 43% | 1005.2 hPa | 0 mm | - | 118 W/m² | - |
| 1777933088 | 21.67° C | 43% | 1005.1 hPa | 0 mm | - | 127 W/m² | - |
| 1777932784 | 21.67° C | 43% | 1005.3 hPa | 0 mm | - | 135 W/m² | - |
| 1777932481 | 21.67° C | 42% | 1005.2 hPa | 0 mm | - | 134 W/m² | - |
| 1777932178 | 21.67° C | 42% | 1005.3 hPa | 0 mm | - | 161 W/m² | - |
| 1777931875 | 21.67° C | 42% | 1005.2 hPa | 0 mm | - | 312 W/m² | - |
| 1777931572 | 21.67° C | 42% | 1005.3 hPa | 0 mm | - | 148 W/m² | - |
| 1777931267 | 21.67° C | 41% | 1005.2 hPa | 0 mm | - | 130 W/m² | - |
| 1777930964 | 21.67° C | 40% | 1005.3 hPa | 0 mm | - | 255 W/m² | - |
| 1777930661 | 22.22° C | 41% | 1005.2 hPa | 0 mm | - | 137 W/m² | - |
| 1777930357 | 22.78° C | 39% | 1005.4 hPa | 0 mm | - | 147 W/m² | - |
| 1777930055 | 23.33° C | 38% | 1005.2 hPa | 0 mm | - | 145 W/m² | - |
| 1777929751 | 22.22° C | 38% | 1005.2 hPa | 0 mm | - | 496 W/m² | - |
| 1777929449 | 22.78° C | 37% | 1005.1 hPa | 0 mm | - | 143 W/m² | - |
| 1777929145 | 22.78° C | 37% | 1005.3 hPa | 0 mm | - | 485 W/m² | - |
| 1777928843 | 22.78° C | 39% | 1005.1 hPa | 0 mm | - | 515 W/m² | - |
* Rain latest hour (hover to see other rain measurements)
** Current wind speed in m/s (hover to see current wind gust speed)